STARLINK-11512, 62517

Orbit data source: Space-Track

STARLINK-11512, 62517 is a payload satellite owned by SpaceX/Seattle (US) in LEO that was launched on Wed, 08 Jan 2025 UTC via an FALCON 9 launch vehicle from the Air Force Eastern Test Range (AFETR). Payload-class satellites include a variety of spacecraft equipped with specific instruments for various scientific and technological missions. These include communications satellites like Starlink; space stations such as the ISS; scientific satellites like the Hubble; Earth observation satellites from companies like Planet Labs, Umbra, and HawkEye 360; GPS; miniature CubeSats for education and research; and military/defense satellites.

Loading next visibility...
Identifier
62517, 2025-004G
Orbit
LEO
Country
Flag of USUS
Related business
Manufacturer
SpaceX/Seattle
Mission
Operational Commercial Communications
Bus & Motor
STARLINK V2MD, Unknown motor
Mass
960 kg wet, ~910 kg dry
Launch date (UTC)
2025-01-08 (2 years ago)
Launch vehicle
FALCON 9
Launch site
Air Force Eastern Test Range (AFETR)
Object type
Payload
Rocket body
Debris
Shape & HBR
Box + 2 Pan, 18.1 m
Radar Cross Section
36.964 m², Large (>1 m²)

Expand to show TLE details & history
Last TLE update: 11 hours ago

TLE from 11 hours ago
0 STARLINK-11512
1 62517U 25004G   26254.73809557  .00131890  00000-0  10143-2 0  9998
2 62517  42.9996  28.8828 0001616 275.1000  84.9683 15.70859061 96473
Epoch: 2026-09-11T17:42Z
TLE epoch observation values (Epoch: 2026-09-11T17:42:51.457Z)
Latitude
-0.00002°
Longitude
132.41123°
Altitude
356.116 km
Speed
7.697 km/s
True Right ascension
01h 55m 31s
True Declination
0° 00' 00"
Sunlit
Object was in full shadow at epoch
Visualization orbit readout
Latitude
Unknown
Longitude
Unknown
Altitude
Unknown
Speed
Unknown
Apparent Right ascension
Unknown
Apparent Declination
Unknown
Sunlit
N/A
Visualization observer readout
Local Sidereal Time
20:52:26
Azimuth
Unknown
Elevation
Unknown
Doppler factor
Unknown
Orbital elements
Apogee altitude
359.511 km
Perigee altitude
357.334 km
Semi-major axis
6,736.559 km
Eccentricity
0.00016
Inclination
42.9996°
RAAN
28.8828°
Arg. of periapsis
275.1°
True anomaly
84.98675°
Mean anomaly
84.9683°
Eccentric anomaly
84.97752°
Mean motion
3.92542 °/min
Orbital period
91.71 mins
BSTAR
0.0010143
Loading maneuver chart data...
Computing Atmospheric mass density...
Loading historical data...
Loading historical data...
Loading historical data...
Loading historical data...
Loading historical data...
Loading historical data...
Loading historical data...

Documentation

Showing up to 5 results
|